Change the Weather History Date:

Saturday, June 22, 2013

  Actual Average (KVPZ) Record (KVPZ)
Temperature  
Mean Temperature 74 °F 71 °F  
Max Temperature 80 °F 82 °F 95 °F (2002)
Min Temperature 66 °F 61 °F 53 °F (2001)
Degree Days  
Heating Degree Days 0 1  
Month to date heating degree days 40  
Since 1 June heating degree days 40  
Since 1 July heating degree days 6319  
Cooling Degree Days 9 7  
Month to date cooling degree days 106  
Year to date cooling degree days 153  
Since 1 June cooling degree days 106  
Growing Degree Days 24 (Base 50)    
Moisture  
Dew Point 67 °F    
Average Humidity 79    
Maximum Humidity 94    
Minimum Humidity 58    
Precipitation  
Precipitation 0.00 in 0.13 in 0.08 in (2008)
Month to date precipitation 2.77  
Year to date precipitation 15.75  
Sea Level Pressure  
Sea Level Pressure 30.07 in    
Wind  
Wind Speed 7 mph (SSW)    
Max Wind Speed 14 mph    
Max Gust Speed -    
Visibility 10 miles    
Events Thunderstorm    
T = Trace of Precipitation, MM = Missing Value Source: NWS Daily Summary

Daily Weather History Graph

Daily Weather History Graph

Search for Another Location

Airport or City:

Trip Planner

Search our weather history database for the weather conditions in past years. The results will help you decide how hot, cold, wet, or windy it might be!

Date:

Astronomy

Jun. 22, 2013 Rise Set
Actual Time 5:17 AM CDT 8:24 PM CDT
Civil Twilight 4:43 AM CDT 8:58 PM CDT
Nautical Twilight 4:00 AM CDT 9:40 PM CDT
Astronomical Twilight 3:09 AM CDT 10:31 PM CDT
Moon 7:38 PM CDT (6/22) 4:29 AM CDT (6/22)
Length of Visible Light 16h 14m
Length of Day
15h 07m
Waxing Gibbous, 99% of the Moon is Illuminated
Jun 22
Waxing Gibbous
Jun 23
Full
Jun 29
Last Quarter
Jul 8
New
Jul 15
First Quarter

Hourly Weather History & Observations

Time (CDT) Temp. Heat Index Dew Point Humidity Pressure Visibility Wind Dir Wind Speed Gust Speed Precip Events Conditions
12:15 AM 68.0 °F - 64.4 °F 88% 30.11 in 10.0 mi SE 4.6 mph - N/A   Clear
12:35 AM 68.0 °F - 64.4 °F 88% 30.10 in 10.0 mi SE 4.6 mph - N/A   Clear
12:55 AM 68.0 °F - 64.4 °F 88% 30.09 in 10.0 mi SSE 6.9 mph - N/A   Clear
1:15 AM 68.0 °F - 64.4 °F 88% 30.08 in 10.0 mi SSE 8.1 mph - N/A   Clear
1:35 AM 68.0 °F - 64.4 °F 88% 30.06 in 10.0 mi SSE 8.1 mph - N/A   Clear
1:55 AM 68.0 °F - 64.4 °F 88% 30.06 in 10.0 mi South 8.1 mph - N/A   Clear
2:15 AM 68.0 °F - 64.4 °F 88% 30.05 in 10.0 mi SSE 8.1 mph - N/A   Clear
2:35 AM 69.8 °F - 64.4 °F 83% 30.05 in 10.0 mi SSE 8.1 mph - N/A   Clear
2:55 AM 69.8 °F - 64.4 °F 83% 30.05 in 10.0 mi SSE 6.9 mph - N/A   Clear
3:15 AM 69.8 °F - 64.4 °F 83% 30.05 in 10.0 mi SSE 8.1 mph - N/A   Clear
3:35 AM 69.8 °F - 64.4 °F 83% 30.05 in 10.0 mi South 6.9 mph - N/A   Clear
3:55 AM 69.8 °F - 66.2 °F 88% 30.05 in 10.0 mi South 8.1 mph - N/A   Clear
4:15 AM 69.8 °F - 66.2 °F 88% 30.05 in 10.0 mi South 8.1 mph - N/A   Clear
4:35 AM 69.8 °F - 66.2 °F 88% 30.06 in 7.0 mi South 6.9 mph - N/A   Clear
4:55 AM 69.8 °F - 68.0 °F 94% 30.07 in 7.0 mi South 6.9 mph - N/A   Clear
5:15 AM 69.8 °F - 68.0 °F 94% 30.07 in 7.0 mi South 8.1 mph - N/A   Clear
5:35 AM 69.8 °F - 68.0 °F 94% 30.06 in 7.0 mi South 9.2 mph - N/A   Clear
5:55 AM 71.6 °F - 68.0 °F 88% 30.06 in 7.0 mi South 11.5 mph - N/A   Clear
6:15 AM 71.6 °F - 68.0 °F 88% 30.07 in 7.0 mi SSW 8.1 mph - N/A   Clear
6:35 AM 71.6 °F - 69.8 °F 94% 30.07 in 10.0 mi SSW 9.2 mph - N/A   Clear
6:55 AM 73.4 °F - 69.8 °F 88% 30.08 in 10.0 mi SSW 8.1 mph - N/A   Clear
7:15 AM 73.4 °F - 69.8 °F 88% 30.09 in 10.0 mi WSW 4.6 mph - N/A   Clear
7:35 AM 73.4 °F - 69.8 °F 88% 30.10 in 10.0 mi WNW 8.1 mph - N/A   Clear
7:55 AM 75.2 °F - 69.8 °F 83% 30.10 in 10.0 mi SSW 5.8 mph - N/A   Clear
8:15 AM 75.2 °F - 69.8 °F 83% 30.10 in 10.0 mi SSW 6.9 mph - N/A   Scattered Clouds
8:35 AM 77.0 °F - 69.8 °F 78% 30.10 in 10.0 mi South 5.8 mph - N/A Thunderstorm Mostly Cloudy
8:55 AM 77.0 °F - 71.6 °F 83% 30.11 in 10.0 mi West 3.5 mph - N/A   Mostly Cloudy
9:15 AM 77.0 °F - 71.6 °F 83% 30.11 in 10.0 mi NW 6.9 mph - N/A Thunderstorm Mostly Cloudy
9:35 AM 77.0 °F - 69.8 °F 78% 30.11 in 7.0 mi South 3.5 mph - N/A   Overcast
9:55 AM 77.0 °F - 69.8 °F 78% 30.12 in 10.0 mi SW 8.1 mph - N/A   Overcast
10:15 AM 77.0 °F - 71.6 °F 83% 30.11 in 10.0 mi South 3.5 mph - N/A Thunderstorm Mostly Cloudy
10:35 AM 78.8 °F - 71.6 °F 78% 30.10 in 7.0 mi South 9.2 mph - N/A   Scattered Clouds
10:55 AM 78.8 °F - 71.6 °F 78% 30.10 in 7.0 mi SW 6.9 mph - N/A   Mostly Cloudy
11:15 AM 80.6 °F 84.6 °F 71.6 °F 74% 30.08 in 7.0 mi South 9.2 mph - N/A Thunderstorm Scattered Clouds
11:35 AM 80.6 °F 85.4 °F 73.4 °F 79% 30.09 in 10.0 mi South 8.1 mph - N/A   Clear
11:55 AM 80.6 °F 84.6 °F 71.6 °F 74% 30.09 in 10.0 mi SSW 10.4 mph - N/A   Clear
12:15 PM 80.6 °F 84.6 °F 71.6 °F 74% 30.11 in 10.0 mi SW 12.7 mph - N/A Thunderstorm Scattered Clouds
12:35 PM 77.0 °F - 69.8 °F 78% 30.12 in 10.0 mi WSW 13.8 mph - N/A   Scattered Clouds
12:55 PM 75.2 °F - 69.8 °F 83% 30.11 in 10.0 mi WNW 10.4 mph - N/A   Scattered Clouds
1:15 PM 75.2 °F - 69.8 °F 83% 30.10 in 10.0 mi NW 9.2 mph - N/A   Clear
1:35 PM 77.0 °F - 69.8 °F 78% 30.09 in 10.0 mi SSW 5.8 mph - N/A Thunderstorm Scattered Clouds
1:55 PM 77.0 °F - 68.0 °F 74% 30.08 in 10.0 mi South 8.1 mph - N/A   Scattered Clouds
2:15 PM 77.0 °F - 68.0 °F 74% 30.07 in 10.0 mi SSE 9.2 mph - N/A   Clear
2:35 PM 77.0 °F - 68.0 °F 74% 30.05 in 10.0 mi SSE 9.2 mph - N/A   Clear
2:55 PM 78.8 °F - 68.0 °F 69% 30.03 in 10.0 mi SSE 6.9 mph - N/A   Clear
3:15 PM 78.8 °F - 66.2 °F 65% 30.02 in 10.0 mi SSE 5.8 mph - N/A   Clear
3:35 PM 80.6 °F 82.3 °F 64.4 °F 58% 30.01 in 10.0 mi Calm Calm - N/A   Clear
3:55 PM 80.6 °F 82.3 °F 64.4 °F 58% 30.01 in 10.0 mi WNW 4.6 mph - N/A   Clear
4:15 PM 80.6 °F 82.3 °F 64.4 °F 58% 30.02 in 10.0 mi SW 3.5 mph - N/A   Clear
4:35 PM 80.6 °F 82.7 °F 66.2 °F 61% 30.02 in 10.0 mi SSW 6.9 mph - N/A   Clear
4:55 PM 80.6 °F 83.2 °F 68.0 °F 65% 30.02 in 10.0 mi SSW 10.4 mph - N/A   Clear
5:15 PM 78.8 °F - 68.0 °F 69% 30.03 in 10.0 mi SW 12.7 mph - N/A   Clear
5:35 PM 78.8 °F - 68.0 °F 69% 30.04 in 10.0 mi SW 11.5 mph - N/A   Clear
5:55 PM 78.8 °F - 66.2 °F 65% 30.04 in 10.0 mi SSW 12.7 mph - N/A   Clear
6:15 PM 78.8 °F - 64.4 °F 61% 30.03 in 10.0 mi SSW 10.4 mph - N/A   Clear
6:35 PM 78.8 °F - 64.4 °F 61% 30.03 in 10.0 mi South 9.2 mph - N/A   Clear
6:55 PM 77.0 °F - 64.4 °F 65% 30.03 in 10.0 mi South 9.2 mph - N/A   Clear
7:15 PM 75.2 °F - 64.4 °F 69% 30.03 in 10.0 mi South 11.5 mph - N/A   Clear
7:35 PM 75.2 °F - 64.4 °F 69% 30.04 in 10.0 mi South 9.2 mph - N/A   Clear
7:55 PM 73.4 °F - 64.4 °F 73% 30.05 in 10.0 mi SSW 8.1 mph - N/A   Clear
8:15 PM 73.4 °F - 66.2 °F 78% 30.06 in 10.0 mi SSW 5.8 mph - N/A   Clear
8:35 PM 73.4 °F - 64.4 °F 73% 30.06 in 10.0 mi SW 10.4 mph - N/A   Clear
8:55 PM 71.6 °F - 64.4 °F 78% 30.06 in 10.0 mi SSW 8.1 mph - N/A   Clear
9:15 PM 71.6 °F - 64.4 °F 78% 30.05 in 10.0 mi South 6.9 mph - N/A   Clear
9:35 PM 69.8 °F - 64.4 °F 83% 30.05 in 10.0 mi South 6.9 mph - N/A   Clear
9:55 PM 69.8 °F - 64.4 °F 83% 30.05 in 10.0 mi South 5.8 mph - N/A   Clear
10:15 PM 69.8 °F - 64.4 °F 83% 30.06 in 10.0 mi South 5.8 mph - N/A   Clear
10:35 PM 69.8 °F - 64.4 °F 83% 30.06 in 10.0 mi SSE 3.5 mph - N/A   Clear
10:55 PM 68.0 °F - 64.4 °F 88% 30.06 in 10.0 mi Calm Calm - N/A   Clear
11:15 PM 68.0 °F - 64.4 °F 88% 30.07 in 10.0 mi WNW 3.5 mph - N/A   Clear
11:35 PM 68.0 °F - 64.4 °F 88% 30.06 in 10.0 mi Calm Calm - N/A   Clear
11:55 PM 66.2 °F - 64.4 °F 94% 30.06 in 10.0 mi Calm Calm - N/A   Clear